H-2A R/B - Orbit

View from above orbital plane
View from above orbital plane
View from above satellite
View from above satellite

Ground track
Ground track

The orbit data is extracted from the following two-line orbital elements,

1 26899U 01038B   13138.05481946  .00001910  00000-0  79041-3 0  7194
2 26899 028.3985 303.9830 7174299 292.0032 344.9205 02.40776171 99958
Epoch (UTC): 18 May 2013 01:18:56
Eccentricity: 0.7174299
inclination: 28.3985°
perigee height: 266 km
apogee height: 34005 km
right ascension of ascending node: 303.9830°
argument of perigee: 292.0032°
revolutions per day: 2.40776171
mean anomaly at epoch: 344.9205°
orbit number at epoch: 9995

The dashed part of the orbit path shows where the satellite is in the earth's shadow,  

Developed and maintained by Chris Peat, Heavens-Above GmbH. Please read the updated FAQ before sending e-mail. Imprint. DLR